Year,Month,Day,Hour,Minute,Value (Times are PST for temperature in C)
2012,03,21,10,42,5.10
2012,03,21,10,43,5.10
2012,03,21,10,44,5.10
2012,03,21,10,45,5.10
2012,03,21,10,46,5.10
2012,03,21,10,47,5.10
2012,03,21,10,48,5.10
2012,03,21,10,49,5.10
2012,03,21,10,50,5.10
2012,03,21,10,51,5.10
2012,03,21,10,52,5.20
2012,03,21,10,53,5.20
2012,03,21,10,54,5.20
2012,03,21,10,55,5.10
2012,03,21,10,56,5.10
2012,03,21,10,57,5.10
2012,03,21,10,58,5.10
2012,03,21,10,59,5.10
2012,03,21,11,00,5.10
2012,03,21,11,01,5.00
2012,03,21,11,02,5.00
2012,03,21,11,03,5.00
2012,03,21,11,04,5.00
2012,03,21,11,05,5.00
2012,03,21,11,06,5.10
2012,03,21,11,07,5.10
2012,03,21,11,08,5.10
2012,03,21,11,09,5.10
2012,03,21,11,10,5.20
2012,03,21,11,11,5.20
2012,03,21,11,12,5.30
2012,03,21,11,13,5.30
2012,03,21,11,14,5.30
2012,03,21,11,15,5.40
2012,03,21,11,16,5.50
2012,03,21,11,17,5.60
2012,03,21,11,18,5.70
2012,03,21,11,19,5.80
2012,03,21,11,20,5.80
2012,03,21,11,21,5.90
2012,03,21,11,22,6.00
2012,03,21,11,23,6.00
2012,03,21,11,24,6.10
2012,03,21,11,25,6.20
2012,03,21,11,26,6.20
2012,03,21,11,27,6.20
2012,03,21,11,28,6.30
2012,03,21,11,29,6.30
2012,03,21,11,30,6.40
2012,03,21,11,31,6.40
2012,03,21,11,32,6.40
2012,03,21,11,33,6.40
2012,03,21,11,34,6.30
2012,03,21,11,35,6.30
2012,03,21,11,36,6.40
2012,03,21,11,37,6.40
2012,03,21,11,38,6.40
2012,03,21,11,39,6.40
2012,03,21,11,40,6.50
2012,03,21,11,41,6.60
2012,03,21,11,42,6.60
2012,03,21,11,43,6.60
2012,03,21,11,44,6.60
2012,03,21,11,45,6.50
2012,03,21,11,46,6.40
2012,03,21,11,47,6.30
2012,03,21,11,48,6.20
2012,03,21,11,49,6.20
2012,03,21,11,50,6.10
2012,03,21,11,51,6.10
2012,03,21,11,52,6.10
2012,03,21,11,53,6.10
2012,03,21,11,54,6.10
2012,03,21,11,55,6.10
2012,03,21,11,56,6.10
2012,03,21,11,57,6.00
2012,03,21,11,58,5.90
2012,03,21,11,59,5.90
2012,03,21,12,00,5.90
2012,03,21,12,01,5.90
2012,03,21,12,02,5.90
2012,03,21,12,03,5.90
2012,03,21,12,04,5.90
2012,03,21,12,05,6.00
2012,03,21,12,06,5.90
2012,03,21,12,07,6.00
2012,03,21,12,08,6.00
2012,03,21,12,09,6.10
2012,03,21,12,10,6.10
2012,03,21,12,11,6.00
2012,03,21,12,12,6.00
2012,03,21,12,13,6.00
2012,03,21,12,14,6.10
2012,03,21,12,15,6.10
2012,03,21,12,16,6.10
2012,03,21,12,17,6.10
2012,03,21,12,18,6.10
2012,03,21,12,19,6.10
2012,03,21,12,20,6.10
2012,03,21,12,21,6.10
2012,03,21,12,22,6.10
2012,03,21,12,23,6.10
2012,03,21,12,24,6.00
2012,03,21,12,25,5.90
2012,03,21,12,26,5.80
2012,03,21,12,27,5.80
2012,03,21,12,28,5.70
2012,03,21,12,29,5.70
2012,03,21,12,30,5.70
2012,03,21,12,31,5.60
2012,03,21,12,32,5.60
2012,03,21,12,33,5.70
2012,03,21,12,34,5.70
2012,03,21,12,35,5.70
2012,03,21,12,36,5.70
2012,03,21,12,37,5.70
2012,03,21,12,38,5.70
2012,03,21,12,39,5.70
2012,03,21,12,40,5.80
2012,03,21,12,41,5.70
2012,03,21,12,42,5.70
2012,03,21,12,43,5.80
2012,03,21,12,44,5.80
2012,03,21,12,45,5.80
2012,03,21,12,46,5.80
2012,03,21,12,47,5.80
2012,03,21,12,48,5.80
2012,03,21,12,49,5.80
2012,03,21,12,50,5.80
2012,03,21,12,51,5.90
2012,03,21,12,52,6.00
2012,03,21,12,53,6.10
2012,03,21,12,54,6.10
2012,03,21,12,55,6.00
2012,03,21,12,56,6.00
2012,03,21,12,57,5.90
2012,03,21,12,58,5.90
2012,03,21,12,59,5.80
2012,03,21,13,00,5.80
2012,03,21,13,01,5.70
2012,03,21,13,02,5.70
2012,03,21,13,03,5.70
2012,03,21,13,04,5.70
2012,03,21,13,05,5.70
2012,03,21,13,06,5.60
2012,03,21,13,07,5.50
2012,03,21,13,08,5.40
2012,03,21,13,09,5.40
2012,03,21,13,10,5.30
2012,03,21,13,11,5.20
2012,03,21,13,12,5.20
2012,03,21,13,13,5.30
2012,03,21,13,14,5.30
2012,03,21,13,15,5.40
2012,03,21,13,16,5.50
2012,03,21,13,17,5.50
2012,03,21,13,18,5.60
2012,03,21,13,19,5.60
2012,03,21,13,20,5.60
2012,03,21,13,21,5.70
2012,03,21,13,22,5.70
2012,03,21,13,23,5.70
2012,03,21,13,24,5.70
2012,03,21,13,25,5.70
2012,03,21,13,26,5.70
2012,03,21,13,27,5.70
2012,03,21,13,28,5.80
2012,03,21,13,29,5.80
2012,03,21,13,30,5.90
2012,03,21,13,31,5.90
2012,03,21,13,32,5.90
2012,03,21,13,33,5.90
2012,03,21,13,34,5.90
2012,03,21,13,35,5.90
2012,03,21,13,36,5.90
2012,03,21,13,37,5.90
2012,03,21,13,38,6.00
2012,03,21,13,39,6.00
2012,03,21,13,40,6.00
2012,03,21,13,41,5.90
2012,03,21,13,42,5.90
2012,03,21,13,43,5.90
2012,03,21,13,44,5.90
2012,03,21,13,45,5.90
2012,03,21,13,46,6.00
2012,03,21,13,47,6.00
2012,03,21,13,48,6.10
2012,03,21,13,49,6.10
2012,03,21,13,50,6.20
2012,03,21,13,51,6.30
2012,03,21,13,52,6.40
2012,03,21,13,53,6.60
2012,03,21,13,54,6.70
2012,03,21,13,55,6.80
2012,03,21,13,56,6.80
2012,03,21,13,57,6.80
2012,03,21,13,58,6.70
2012,03,21,13,59,6.70
2012,03,21,14,00,6.80
2012,03,21,14,01,6.90
2012,03,21,14,02,7.00
2012,03,21,14,03,7.20
2012,03,21,14,04,7.20
2012,03,21,14,05,7.20
2012,03,21,14,06,7.20
2012,03,21,14,07,7.30
2012,03,21,14,08,7.40
2012,03,21,14,09,7.40
2012,03,21,14,10,7.30
2012,03,21,14,11,7.30
2012,03,21,14,12,7.20
2012,03,21,14,13,7.30
2012,03,21,14,14,7.30
2012,03,21,14,15,7.40
2012,03,21,14,16,7.40
2012,03,21,14,17,7.50
2012,03,21,14,18,7.50
2012,03,21,14,19,7.40
2012,03,21,14,20,7.30
2012,03,21,14,21,7.30
2012,03,21,14,22,7.20
2012,03,21,14,23,7.20
2012,03,21,14,24,7.10
2012,03,21,14,25,7.10
2012,03,21,14,26,7.00
2012,03,21,14,27,7.00
2012,03,21,14,28,6.90
2012,03,21,14,29,6.90
2012,03,21,14,30,7.00
2012,03,21,14,31,7.00
2012,03,21,14,32,7.10
2012,03,21,14,33,7.10
2012,03,21,14,34,7.10
2012,03,21,14,35,7.10
2012,03,21,14,36,7.00
2012,03,21,14,37,6.90
2012,03,21,14,38,6.80
2012,03,21,14,39,6.70
2012,03,21,14,40,6.70
2012,03,21,14,41,6.70
2012,03,21,14,42,6.80
2012,03,21,14,43,6.80
2012,03,21,14,44,6.90
2012,03,21,14,45,6.90
2012,03,21,14,46,7.00
2012,03,21,14,47,7.00
2012,03,21,14,48,7.10
2012,03,21,14,49,7.10
2012,03,21,14,50,7.10
2012,03,21,14,51,7.00
2012,03,21,14,52,6.90
2012,03,21,14,53,6.80
2012,03,21,14,54,6.70
2012,03,21,14,55,6.70
2012,03,21,14,56,6.70
2012,03,21,14,57,6.70
2012,03,21,14,58,6.70
2012,03,21,14,59,6.70
2012,03,21,15,00,6.60
2012,03,21,15,01,6.60
2012,03,21,15,02,6.70
2012,03,21,15,03,6.70
2012,03,21,15,04,6.70
2012,03,21,15,05,6.70
2012,03,21,15,06,6.70
2012,03,21,15,07,6.70
2012,03,21,15,08,6.70
2012,03,21,15,09,6.60
2012,03,21,15,10,6.60
2012,03,21,15,11,6.60
2012,03,21,15,12,6.50
2012,03,21,15,13,6.50
2012,03,21,15,14,6.40
2012,03,21,15,15,6.40
2012,03,21,15,16,6.40
2012,03,21,15,17,6.40
2012,03,21,15,18,6.40
2012,03,21,15,19,6.30
2012,03,21,15,20,6.30
2012,03,21,15,21,6.30
2012,03,21,15,22,6.30
2012,03,21,15,23,6.40
2012,03,21,15,24,6.40
2012,03,21,15,25,6.40
2012,03,21,15,26,6.40
2012,03,21,15,27,6.40
2012,03,21,15,28,6.40
2012,03,21,15,29,6.40
2012,03,21,15,30,6.40
2012,03,21,15,31,6.40
2012,03,21,15,32,6.40
2012,03,21,15,33,6.40
2012,03,21,15,34,6.40
2012,03,21,15,35,6.40
2012,03,21,15,36,6.40
2012,03,21,15,37,6.50
2012,03,21,15,38,6.50
2012,03,21,15,39,6.50
2012,03,21,15,40,6.40
2012,03,21,15,41,6.30
2012,03,21,15,42,6.30
2012,03,21,15,43,6.30
2012,03,21,15,44,6.20
2012,03,21,15,45,6.30
2012,03,21,15,46,6.30
2012,03,21,15,47,6.30
2012,03,21,15,48,6.40
2012,03,21,15,49,6.40
2012,03,21,15,50,6.40
2012,03,21,15,51,6.30
2012,03,21,15,52,6.30
2012,03,21,15,53,6.20
2012,03,21,15,54,6.20
2012,03,21,15,55,6.20
2012,03,21,15,56,6.20
2012,03,21,15,57,6.10
2012,03,21,15,58,6.10
2012,03,21,15,59,6.10
2012,03,21,16,00,6.20
2012,03,21,16,01,6.10
2012,03,21,16,02,6.10
2012,03,21,16,03,6.10
2012,03,21,16,04,6.10
2012,03,21,16,05,6.10
2012,03,21,16,06,6.10
2012,03,21,16,07,6.10
2012,03,21,16,08,6.10
2012,03,21,16,09,6.10
2012,03,21,16,10,6.10
2012,03,21,16,11,6.10
2012,03,21,16,12,6.10
2012,03,21,16,13,6.10
2012,03,21,16,14,6.10
2012,03,21,16,15,6.20
2012,03,21,16,16,6.20
2012,03,21,16,17,6.20
2012,03,21,16,18,6.20
2012,03,21,16,19,6.20
2012,03,21,16,20,6.20
2012,03,21,16,21,6.20
2012,03,21,16,22,6.20
2012,03,21,16,23,6.20
2012,03,21,16,24,6.20
2012,03,21,16,25,6.20
2012,03,21,16,26,6.20
2012,03,21,16,27,6.30
2012,03,21,16,28,6.40
2012,03,21,16,29,6.40
2012,03,21,16,30,6.40
2012,03,21,16,31,6.40
2012,03,21,16,32,6.40
2012,03,21,16,33,6.40
2012,03,21,16,34,6.40
2012,03,21,16,35,6.40
2012,03,21,16,36,6.40
2012,03,21,16,37,6.40
2012,03,21,16,38,6.40
2012,03,21,16,39,6.40
2012,03,21,16,40,6.40
2012,03,21,16,41,6.40
2012,03,21,16,42,6.40
2012,03,21,16,43,6.30
2012,03,21,16,44,6.30
2012,03,21,16,45,6.30
2012,03,21,16,46,6.20
2012,03,21,16,47,6.10
2012,03,21,16,48,6.10
2012,03,21,16,49,6.10
2012,03,21,16,50,6.20
2012,03,21,16,51,6.20
2012,03,21,16,52,6.20
2012,03,21,16,53,6.30
2012,03,21,16,54,6.30
2012,03,21,16,55,6.40
2012,03,21,16,56,6.50
2012,03,21,16,57,6.60
2012,03,21,16,58,6.70
2012,03,21,16,59,6.60
2012,03,21,17,00,6.60
2012,03,21,17,01,6.70
2012,03,21,17,02,6.70
2012,03,21,17,03,6.70
2012,03,21,17,04,6.70
2012,03,21,17,05,6.70
2012,03,21,17,06,6.70
2012,03,21,17,07,6.60
2012,03,21,17,08,6.60
2012,03,21,17,09,6.70
2012,03,21,17,10,6.70
2012,03,21,17,11,6.70
2012,03,21,17,12,6.70
2012,03,21,17,13,6.70
2012,03,21,17,14,6.80
2012,03,21,17,15,6.80
2012,03,21,17,16,6.80
2012,03,21,17,17,6.80
2012,03,21,17,18,6.80
2012,03,21,17,19,6.80
2012,03,21,17,20,6.80
2012,03,21,17,21,6.80
2012,03,21,17,22,6.80
2012,03,21,17,23,6.80
2012,03,21,17,24,6.80
2012,03,21,17,25,6.80
2012,03,21,17,26,6.80
2012,03,21,17,27,6.80
2012,03,21,17,28,6.80
2012,03,21,17,29,6.80
2012,03,21,17,30,6.80
2012,03,21,17,31,6.80
2012,03,21,17,32,6.80
2012,03,21,17,33,6.80
2012,03,21,17,34,6.90
2012,03,21,17,35,6.90
2012,03,21,17,36,6.80
2012,03,21,17,37,6.90
2012,03,21,17,38,6.90
2012,03,21,17,39,7.00
2012,03,21,17,40,7.00
2012,03,21,17,41,7.00
2012,03,21,17,42,6.90
2012,03,21,17,43,6.90
2012,03,21,17,44,6.80
2012,03,21,17,45,6.80
2012,03,21,17,46,6.80
2012,03,21,17,47,6.70
2012,03,21,17,48,6.70
2012,03,21,17,49,6.70
2012,03,21,17,50,6.60
2012,03,21,17,51,6.60
2012,03,21,17,52,6.60
2012,03,21,17,53,6.60
2012,03,21,17,54,6.60
2012,03,21,17,55,6.60
2012,03,21,17,56,6.60
2012,03,21,17,57,6.50
2012,03,21,17,58,6.50
2012,03,21,17,59,6.40
2012,03,21,18,00,6.30
2012,03,21,18,01,6.20
2012,03,21,18,02,6.20
2012,03,21,18,03,6.10
2012,03,21,18,04,6.10
2012,03,21,18,05,6.10
2012,03,21,18,06,6.10
2012,03,21,18,07,6.10
2012,03,21,18,08,6.10
2012,03,21,18,09,6.10
2012,03,21,18,10,6.00
2012,03,21,18,11,6.00
2012,03,21,18,12,6.00
2012,03,21,18,13,6.10
2012,03,21,18,14,6.10
2012,03,21,18,15,6.10
2012,03,21,18,16,6.10
2012,03,21,18,17,6.10
2012,03,21,18,18,6.10
2012,03,21,18,19,6.10
2012,03,21,18,20,6.10
2012,03,21,18,21,6.10
2012,03,21,18,22,6.10
2012,03,21,18,23,6.10
2012,03,21,18,24,6.10
2012,03,21,18,25,6.10
2012,03,21,18,26,6.10
2012,03,21,18,27,6.00
2012,03,21,18,28,6.00
2012,03,21,18,29,6.00
2012,03,21,18,30,5.90
2012,03,21,18,31,5.90
2012,03,21,18,32,5.80
2012,03,21,18,33,5.80
2012,03,21,18,34,5.80
2012,03,21,18,35,5.70
2012,03,21,18,36,5.70
2012,03,21,18,37,5.70
2012,03,21,18,38,5.70
2012,03,21,18,39,5.70
2012,03,21,18,40,5.60
2012,03,21,18,41,5.60
2012,03,21,18,42,5.60
2012,03,21,18,43,5.60
2012,03,21,18,44,5.60
2012,03,21,18,45,5.60
2012,03,21,18,46,5.60
2012,03,21,18,47,5.50
2012,03,21,18,48,5.50
2012,03,21,18,49,5.50
2012,03,21,18,50,5.50
2012,03,21,18,51,5.40
2012,03,21,18,52,5.40
2012,03,21,18,53,5.40
2012,03,21,18,54,5.40
2012,03,21,18,55,5.30
2012,03,21,18,56,5.30
2012,03,21,18,57,5.30
2012,03,21,18,58,5.30
2012,03,21,18,59,5.20
2012,03,21,19,00,5.20
2012,03,21,19,01,5.20
2012,03,21,19,02,5.20
2012,03,21,19,03,5.10
2012,03,21,19,04,5.10
2012,03,21,19,05,5.10
2012,03,21,19,06,5.10
2012,03,21,19,07,5.10
2012,03,21,19,08,5.00
2012,03,21,19,09,5.00
2012,03,21,19,10,5.00
2012,03,21,19,11,4.90
2012,03,21,19,12,4.90
2012,03,21,19,13,4.90
2012,03,21,19,14,4.90
2012,03,21,19,15,4.80
2012,03,21,19,16,4.80
2012,03,21,19,17,4.80
2012,03,21,19,18,4.80
2012,03,21,19,19,4.70
2012,03,21,19,20,4.70
2012,03,21,19,21,4.70
2012,03,21,19,22,4.70
2012,03,21,19,23,4.70
2012,03,21,19,24,4.60
2012,03,21,19,25,4.60
2012,03,21,19,26,4.60
2012,03,21,19,27,4.60
2012,03,21,19,28,4.50
2012,03,21,19,29,4.50
2012,03,21,19,30,4.50
2012,03,21,19,31,4.50
2012,03,21,19,32,4.50
2012,03,21,19,33,4.40
2012,03,21,19,34,4.40
2012,03,21,19,35,4.40
2012,03,21,19,36,4.40
2012,03,21,19,37,4.30
2012,03,21,19,38,4.30
2012,03,21,19,39,4.30
2012,03,21,19,40,4.20
2012,03,21,19,41,4.20
2012,03,21,19,42,4.20
2012,03,21,19,43,4.20
2012,03,21,19,44,4.20
2012,03,21,19,45,4.20
2012,03,21,19,46,4.20
2012,03,21,19,47,4.20
2012,03,21,19,48,4.20
2012,03,21,19,49,4.20
2012,03,21,19,50,4.20
